CZ-2C R/B (31114 NORAD) Tracking and Keplerian Element Data

This shows tracking and keplerian element data for the satellite.

Feedback or suggestion? Click here.




ElementValue
Catalog31114
NameCZ-2C R/B
Epoch Orbit76490
Epoch Day15.79853793
Epoch Year2022
RAAN199.577
Inclination98.2283
Eccentricity0.0060154
Argument of Perigee24.3146
Mean Anonmoly336.085
Mean Motion14.19386954
Decay Rate2.9E-07
L11 31114U 07010B 22015.79853793 .00000029 00000+0 32095-4 0 9992
L22 31114 98.2283 199.5770 0060154 24.3146 336.0850 14.19386954764909

Live tracking and technical data element details for CZ-2C R/B (NORAD 31114). CZ-2C R/B can be tracked NOW for your location showing map with azimuth and elevation plus other details from your city location.

Track the satellite on the map from your city or location and see movement details for azimuth, elevation, latitude, longitude, range, height, and movement on the map or in text.







IsCatalogInMostPopularTable: catalog: 31114, numindb: 322
Update: records affected: 1



GetName: 31114 CZ-2C R/B

Hit Count: updated at: Mon, 17 Jan 2022 01:18:40 GMT